TimeCST,TemperatureF,Dew PointF,Humidity,Sea Level PressureIn,VisibilityMPH,Wind Direction,Wind SpeedMPH,Gust SpeedMPH,PrecipitationIn,Events,Conditions,WindDirDegrees,DateUTC
12:14 AM,12.2,8.6,85,29.80,10.0,NNW,15.0,19.6,N/A,,Overcast,330,2013-01-30 06:14:00
12:35 AM,10.4,8.6,92,29.80,10.0,NW,15.0,20.7,N/A,Snow,Light Snow,320,2013-01-30 06:35:00
12:53 AM,10.4,6.8,85,29.79,10.0,NNW,15.0,-,N/A,Snow,Light Snow,330,2013-01-30 06:53:00
1:15 AM,10.4,6.8,85,29.78,10.0,NW,15.0,-,N/A,,Overcast,320,2013-01-30 07:15:00
1:35 AM,10.4,6.8,85,29.78,10.0,NNW,15.0,19.6,N/A,,Overcast,330,2013-01-30 07:35:00
1:53 AM,10.4,6.8,85,29.77,10.0,NW,12.7,17.3,N/A,,Overcast,320,2013-01-30 07:53:00
2:15 AM,8.6,6.8,92,29.77,10.0,NNW,12.7,-,N/A,,Overcast,330,2013-01-30 08:15:00
2:34 AM,8.6,6.8,92,29.78,7.0,NNW,10.4,-,N/A,Snow,Light Snow,330,2013-01-30 08:34:00
2:53 AM,8.6,5.0,85,29.77,10.0,NNW,13.8,-,N/A,Snow,Light Snow,330,2013-01-30 08:53:00
3:15 AM,8.6,5.0,85,29.76,7.0,NW,11.5,-,N/A,Snow,Light Snow,310,2013-01-30 09:15:00
3:35 AM,8.6,3.2,79,29.76,10.0,NW,12.7,-,N/A,Snow,Light Snow,320,2013-01-30 09:35:00
3:53 AM,8.6,3.2,79,29.77,10.0,NW,15.0,-,N/A,Snow,Light Snow,310,2013-01-30 09:53:00
4:15 AM,8.6,3.2,79,29.77,10.0,NW,12.7,-,N/A,Snow,Light Snow,320,2013-01-30 10:15:00
4:35 AM,8.6,3.2,79,29.78,10.0,NW,12.7,-,N/A,Snow,Light Snow,320,2013-01-30 10:35:00
4:53 AM,6.8,3.2,85,29.78,10.0,NW,13.8,-,N/A,Snow,Light Snow,320,2013-01-30 10:53:00
5:14 AM,6.8,3.2,85,29.77,10.0,NW,15.0,19.6,N/A,Snow,Light Snow,320,2013-01-30 11:14:00
5:35 AM,6.8,3.2,85,29.76,10.0,NW,16.1,-,N/A,Snow,Light Snow,320,2013-01-30 11:35:00
5:53 AM,6.8,1.4,79,29.76,10.0,NW,13.8,19.6,N/A,Snow,Light Snow,320,2013-01-30 11:53:00
6:14 AM,6.8,1.4,79,29.76,10.0,NNW,17.3,21.9,N/A,Snow,Light Snow,330,2013-01-30 12:14:00
6:35 AM,6.8,1.4,79,29.75,10.0,NW,16.1,-,N/A,,Overcast,320,2013-01-30 12:35:00
6:53 AM,6.8,1.4,79,29.75,10.0,NW,15.0,-,N/A,,Overcast,320,2013-01-30 12:53:00
7:15 AM,5.0,1.4,85,29.75,10.0,NW,11.5,-,N/A,,Overcast,320,2013-01-30 13:15:00
7:35 AM,5.0,1.4,85,29.75,10.0,NW,11.5,-,N/A,,Overcast,320,2013-01-30 13:35:00
7:53 AM,5.0,1.4,85,29.76,10.0,NW,12.7,-,N/A,,Overcast,310,2013-01-30 13:53:00
8:15 AM,5.0,1.4,85,29.76,10.0,NW,13.8,-,N/A,,Overcast,320,2013-01-30 14:15:00
8:35 AM,5.0,1.4,85,29.76,10.0,NW,13.8,17.3,N/A,,Overcast,310,2013-01-30 14:35:00
8:52 AM,5.0,1.4,85,29.75,10.0,NW,15.0,-,N/A,,Overcast,310,2013-01-30 14:52:00
9:14 AM,5.0,-0.4,78,29.75,10.0,NW,16.1,19.6,N/A,,Overcast,310,2013-01-30 15:14:00
9:35 AM,5.0,-0.4,78,29.74,10.0,NW,16.1,-,N/A,,Overcast,310,2013-01-30 15:35:00
9:53 AM,5.0,-0.4,78,29.74,10.0,NW,15.0,-,N/A,,Overcast,320,2013-01-30 15:53:00
10:15 AM,5.0,-0.4,78,29.75,10.0,NW,12.7,-,N/A,,Overcast,320,2013-01-30 16:15:00
10:35 AM,5.0,-0.4,78,29.75,10.0,NW,13.8,19.6,N/A,,Overcast,310,2013-01-30 16:35:00
10:52 AM,5.0,-0.4,78,29.75,10.0,WNW,13.8,-,N/A,,Overcast,300,2013-01-30 16:52:00
11:15 AM,5.0,-0.4,78,29.76,10.0,NW,11.5,-,N/A,Snow,Light Snow,310,2013-01-30 17:15:00
11:35 AM,5.0,-0.4,78,29.75,7.0,WNW,9.2,16.1,N/A,Snow,Light Snow,300,2013-01-30 17:35:00
11:53 AM,5.0,-0.4,78,29.75,10.0,NW,15.0,-,N/A,,Overcast,310,2013-01-30 17:53:00
12:15 PM,5.0,-0.4,78,29.74,10.0,NW,12.7,-,N/A,Snow,Light Snow,310,2013-01-30 18:15:00
12:35 PM,5.0,-0.4,78,29.74,10.0,NW,15.0,-,N/A,,Overcast,310,2013-01-30 18:35:00
12:53 PM,5.0,-0.4,78,29.73,10.0,NW,15.0,-,N/A,,Overcast,310,2013-01-30 18:53:00
1:15 PM,5.0,-0.4,78,29.72,10.0,WNW,16.1,-,N/A,,Overcast,300,2013-01-30 19:15:00
1:35 PM,6.8,-0.4,72,29.72,10.0,WNW,15.0,-,N/A,,Overcast,300,2013-01-30 19:35:00
1:52 PM,6.8,-0.4,72,29.72,7.0,NW,17.3,-,N/A,,Overcast,310,2013-01-30 19:52:00
2:14 PM,6.8,-0.4,72,29.72,7.0,NW,17.3,21.9,N/A,,Overcast,310,2013-01-30 20:14:00
2:34 PM,6.8,-0.4,72,29.72,10.0,NW,15.0,20.7,N/A,,Overcast,310,2013-01-30 20:34:00
2:53 PM,6.8,-0.4,72,29.72,10.0,WNW,17.3,21.9,N/A,,Overcast,300,2013-01-30 20:53:00
3:15 PM,6.8,-0.4,72,29.72,10.0,WNW,15.0,-,N/A,,Overcast,300,2013-01-30 21:15:00
3:35 PM,6.8,-0.4,72,29.72,10.0,WNW,17.3,21.9,N/A,,Overcast,300,2013-01-30 21:35:00
3:53 PM,5.0,-0.4,78,29.72,10.0,NW,16.1,-,N/A,,Overcast,310,2013-01-30 21:53:00
4:15 PM,5.0,-0.4,78,29.73,7.0,NW,15.0,20.7,N/A,,Overcast,310,2013-01-30 22:15:00
4:35 PM,5.0,-0.4,78,29.73,5.0,NW,13.8,21.9,N/A,Snow,Light Snow,310,2013-01-30 22:35:00
4:53 PM,5.0,-0.4,78,29.73,4.0,NW,17.3,-,N/A,Snow,Light Snow,320,2013-01-30 22:53:00
5:15 PM,3.2,-2.2,78,29.73,2.5,NW,17.3,24.2,N/A,Snow,Light Snow,310,2013-01-30 23:15:00
5:35 PM,3.2,-2.2,78,29.74,3.0,NW,16.1,23.0,N/A,Snow,Light Snow,320,2013-01-30 23:35:00
5:52 PM,3.2,-2.2,78,29.74,7.0,NW,13.8,19.6,N/A,,Overcast,310,2013-01-30 23:52:00
6:14 PM,3.2,-2.2,78,29.74,7.0,NW,11.5,-,N/A,,Overcast,310,2013-01-31 00:14:00
6:34 PM,1.4,-4.0,78,29.74,10.0,NW,16.1,-,N/A,,Mostly Cloudy,310,2013-01-31 00:34:00
6:53 PM,1.4,-4.0,78,29.74,10.0,NW,16.1,20.7,N/A,,Mostly Cloudy,310,2013-01-31 00:53:00
7:15 PM,1.4,-4.0,78,29.74,10.0,NW,12.7,-,N/A,,Overcast,320,2013-01-31 01:15:00
7:35 PM,1.4,-4.0,78,29.74,10.0,NW,9.2,-,N/A,,Overcast,310,2013-01-31 01:35:00
7:53 PM,1.4,-4.0,78,29.74,10.0,WNW,16.1,-,N/A,,Overcast,300,2013-01-31 01:53:00
8:15 PM,1.4,-4.0,78,29.74,5.0,NW,20.7,24.2,N/A,,Haze,310,2013-01-31 02:15:00
8:35 PM,1.4,-4.0,78,29.74,7.0,WNW,11.5,24.2,N/A,,Overcast,300,2013-01-31 02:35:00
8:53 PM,-0.4,-5.8,78,29.74,7.0,NW,15.0,25.3,N/A,,Overcast,320,2013-01-31 02:53:00
9:14 PM,-0.4,-5.8,78,29.74,4.0,NW,17.3,21.9,N/A,Snow,Light Snow,310,2013-01-31 03:14:00
9:35 PM,-2.2,-7.6,78,29.75,7.0,NW,13.8,23.0,N/A,Snow,Light Snow,310,2013-01-31 03:35:00
9:52 PM,-2.2,-7.6,78,29.75,10.0,WNW,15.0,18.4,N/A,,Overcast,300,2013-01-31 03:52:00
10:14 PM,-2.2,-7.6,78,29.75,10.0,WNW,16.1,20.7,N/A,,Overcast,300,2013-01-31 04:14:00
10:35 PM,-2.2,-7.6,78,29.76,10.0,NW,13.8,-,N/A,,Overcast,310,2013-01-31 04:35:00
10:53 PM,-2.2,-9.4,71,29.76,5.0,NW,13.8,18.4,N/A,Snow,Light Snow,310,2013-01-31 04:53:00
11:15 PM,-2.2,-7.6,78,29.76,10.0,WNW,15.0,19.6,N/A,,Overcast,300,2013-01-31 05:15:00
11:35 PM,-2.2,-7.6,78,29.76,10.0,NW,16.1,24.2,N/A,,Overcast,310,2013-01-31 05:35:00
11:53 PM,-2.2,-7.6,78,29.76,10.0,WNW,15.0,19.6,N/A,,Overcast,300,2013-01-31 05:53:00